Home   Weather   Biberach an der Riss   Past weeks

Flag for Germany Past Weather in Biberach an der Riss, Baden-Württemberg, Germany — Yesterday and Last 2 Weeks

Now
28 °F

Passing clouds.


Feels Like: 21 °F
Forecast: 23 / 38 °F
Wind: 7 mph from Northeast

Location: Laupheim Airport

Current Time: Dec 4, 2016 at 1:04:49 am

Latest Report: Dec 4, 2016 at 12:20 am


Visibility: 5 mi

Pressure: 30.21 "Hg (28.24 "Hg at 536m altitude)

Humidity: 86%

Dew Point: 25 °F

Location of Biberach an der RissLocation

Past Weather in Biberach an der Riss — Graph

°F

Biberach an der Riss Temperature Yesterday

Maximum temperature yesterday: 37 °F (at 1:20 pm)
Minimum temperature yesterday: 28 °F (at 6:20 pm)
Average temperature yesterday: 32 °F

High & Low Weather Summary for the Past Weeks

 TemperatureHumidityPressure
High48 °F (Nov 20, 3:20 pm)100% (Nov 19, 5:20 am)30.51 "Hg (Nov 19, 5:20 am)
Low19 °F (Nov 30, 1:20 am)51% (Nov 29, 2:20 pm)29.65 "Hg (Nov 21, 11:20 am)
Average37 °F89%30.06 "Hg
* Reported Nov 18 11:20 pm — Dec 3 11:20 pm, Biberach an der Riss, Weather by CustomWeather, © 2016

Note: Actual official high and low records may vary slightly from our data, if they occured in-between our weather recording intervals... More about our weather records

Advertising

Biberach an der Riss Weather History for the Previous 24 Hours

Scroll right to see more
 ConditionsComfort  
Time TempWeatherWind HumidityBarometerVisibility
11:20 pm
Sat, Dec 3
28 °FPassing clouds.9 mph86%30.21 "Hg5 mi
10:20 pm28 °FPassing clouds.10 mph86%30.21 "HgN/A
9:20 pm28 °FPassing clouds.10 mph86%30.21 "HgN/A
8:20 pm28 °FPassing clouds.7 mph86%30.18 "HgN/A
7:20 pm28 °FChilly.8 mph80%30.18 "HgN/A
6:20 pm28 °FChilly.8 mph80%30.18 "HgN/A
5:20 pm30 °FChilly.8 mph80%30.15 "HgN/A
4:20 pm32 °FChilly.10 mph75%30.15 "HgN/A
3:20 pm36 °FChilly.12 mph65%30.15 "HgN/A
2:20 pm37 °FPassing clouds.12 mph56%30.12 "HgN/A
1:20 pm37 °FPassing clouds.13 mph56%30.12 "HgN/A
12:20 pm36 °FPassing clouds.9 mph60%30.15 "HgN/A
11:20 am34 °FPassing clouds.12 mph70%30.15 "HgN/A
10:20 am32 °FPassing clouds.12 mph75%30.15 "HgN/A
9:20 am30 °FPassing clouds.8 mph86%30.15 "HgN/A
8:20 am30 °FPartly sunny.8 mph93%30.15 "Hg5 mi
7:20 am30 °FPassing clouds.8 mph93%30.12 "Hg5 mi
6:20 am30 °FPassing clouds.8 mph93%30.12 "Hg5 mi
5:20 am34 °FPassing clouds.10 mph87%30.12 "Hg5 mi
4:20 am36 °FFog.10 mph87%30.12 "Hg2 mi
3:20 am36 °FFog.7 mph93%30.12 "Hg2 mi
2:20 am36 °FFog.6 mph93%30.12 "Hg3 mi
1:20 am36 °FFog.6 mph93%30.12 "Hg3 mi
Weather by CustomWeather, © 2016

See weather overviewHow to use our weather pages